GW6607 Weather Reports


time (UTC)temp
F
wind
direction
speed
knots
gust
knots
rain 1hr
in
rain 24hr
in
rain mn
in
humidity
%
barometer
mb
20260508020012 52 315 0.0 3.5 0.00 0.02 0.01 42 1007.3
20260508015504 52 314 0.9 3.5 0.00 0.02 0.01 43 1007.1
20260508015003 52 322 0.0 1.7 0.00 0.02 0.01 44 1007.0
20260508014503 52 323 0.0 1.7 0.00 0.02 0.01 44 1006.9
20260508014003 53 323 0.0 0.0 0.00 0.02 0.01 44 1007.0
20260508013504 53 314 0.0 0.0 0.00 0.02 0.01 43 1006.9
20260508013006 53 320 0.0 1.7 0.00 0.02 0.01 44 1006.8
20260508012505 53 321 0.0 1.7 0.00 0.02 0.01 43 1006.8
20260508012004 53 325 0.0 0.0 0.00 0.03 0.01 42 1006.7
20260508011508 54 313 0.0 0.0 0.00 0.03 0.01 42 1006.6
20260508011004 54 318 0.0 1.7 0.00 0.03 0.01 42 1006.6
20260508010503 54 333 0.0 1.7 0.00 0.03 0.01 42 1006.6
20260508010007 54 313 0.0 1.7 0.00 0.03 0.01 43 1006.6
20260508005513 54 321 0.0 1.7 0.00 0.03 0.01 43 1006.5
20260508005002 55 329 0.0 0.9 0.00 0.03 0.01 39 1006.4
20260508004509 55 276 0.0 0.9 0.00 0.03 0.01 39 1006.2
20260508004008 55 311 0.0 0.0 0.00 0.03 0.01 39 1006.1
20260508003502 55 282 0.0 0.0 0.00 0.03 0.01 38 1006.0
20260508003004 55 312 0.0 1.7 0.00 0.03 0.01 38 1006.0
20260508002503 56 263 0.0 3.5 0.00 0.03 0.01 38 1005.8
20260508002005 56 243 0.9 3.5 0.00 0.03 0.01 37 1005.7
20260508001508 56 284 0.0 1.7 0.00 0.03 0.01 37 1005.7
20260508001003 56 250 0.0 1.7 0.00 0.03 0.01 36 1005.7
20260508000502 56 243 0.0 2.6 0.00 0.03 0.01 36 1005.7
20260508000008 57 336 0.0 2.6 0.00 0.03 0.01 35 1005.7
20260507235503 57 302 0.0 2.6 0.00 0.03 0.01 35 1005.6
20260507235005 57 316 0.0 1.7 0.00 0.03 0.01 35 1005.6
20260507234517 57 308 0.0 1.7 0.00 0.03 0.01 35 1005.6
20260507234002 58 257 0.0 3.5 0.00 0.03 0.01 35 1005.6
20260507233503 58 340 0.9 3.5 0.00 0.03 0.01 34 1005.6
20260507233012 58 313 0.9 5.2 0.00 0.03 0.01 34 1005.6
20260507232507 58 293 1.7 5.2 0.00 0.03 0.01 33 1005.6
20260507232003 59 284 1.7 7.8 0.00 0.03 0.01 33 1005.5
20260507231506 59 342 2.6 7.8 0.00 0.03 0.01 33 1005.5
20260507231003 59 287 1.7 6.1 0.00 0.03 0.01 34 1005.5
20260507230502 59 311 1.7 6.1 0.00 0.03 0.01 33 1005.3
20260507230009 59 295 3.5 6.1 0.00 0.03 0.01 33 1005.3
20260507225504 59 309 1.7 5.2 0.00 0.03 0.01 34 1005.3
20260507225008 59 303 2.6 7.0 0.00 0.03 0.01 33 1005.2
20260507224517 60 199 2.6 7.0 0.00 0.03 0.01 33 1005.0
20260507224005 60 340 2.6 7.0 0.00 0.03 0.01 33 1005.0
20260507223504 60 336 2.6 10.4 0.00 0.03 0.01 33 1004.9
20260507223013 60 287 3.5 10.4 0.00 0.03 0.01 33 1004.9
20260507222503 60 286 1.7 11.3 0.00 0.04 0.01 33 1004.9
20260507222007 60 325 6.1 11.3 0.00 0.04 0.01 33 1004.8
20260507221516 60 301 1.7 7.0 0.00 0.04 0.01 33 1004.6
20260507221001 60 243 2.6 11.3 0.00 0.04 0.01 33 1004.7
20260507220504 60 299 1.7 11.3 0.00 0.04 0.01 33 1004.6
20260507220009 60 296 3.5 9.6 0.00 0.04 0.01 32 1004.7
20260507215503 61 334 3.5 13.9 0.00 0.05 0.01 31 1004.7
20260507215003 61 259 4.3 13.9 0.00 0.05 0.01 31 1004.7
20260507214512 62 321 7.8 12.2 0.00 0.06 0.01 30 1004.6
20260507214006 63 259 3.5 10.4 0.00 0.07 0.01 31 1004.6
20260507213505 62 277 3.5 12.2 0.00 0.08 0.01 30 1004.6
20260507213022 63 290 4.3 14.8 0.00 0.09 0.01 30 1004.6
20260507212506 63 239 4.3 14.8 0.00 0.10 0.01 30 1004.6
20260507212004 63 218 3.5 12.2 0.00 0.10 0.01 29 1004.7
20260507211514 64 342 3.5 9.6 0.00 0.11 0.01 30 1004.6
20260507211003 64 240 3.5 13.0 0.00 0.12 0.01 30 1004.5
20260507210505 64 337 4.3 13.0 0.00 0.12 0.01 30 1004.5
20260507210015 65 301 2.6 8.7 0.00 0.13 0.01 31 1004.5
20260507205502 64 314 1.7 8.7 0.00 0.14 0.01 31 1004.4
20260507205007 64 256 2.6 8.7 0.00 0.15 0.01 30 1004.3
20260507204510 64 171 2.6 7.8 0.00 0.16 0.01 31 1004.4
20260507204003 64 329 3.5 10.4 0.00 0.16 0.01 31 1004.3
20260507203505 63 334 2.6 11.3 0.00 0.17 0.01 33 1004.3
20260507203017 63 294 2.6 11.3 0.00 0.17 0.01 33 1004.4
20260507202507 63 311 1.7 8.7 0.00 0.17 0.01 34 1004.4
20260507202008 63 323 3.5 9.6 0.00 0.17 0.01 32 1004.4
20260507201521 64 333 3.5 12.2 0.00 0.18 0.01 33 1004.4
20260507201009 64 297 4.3 12.2 0.00 0.18 0.01 34 1004.4
20260507200508 64 249 4.3 9.6 0.00 0.18 0.01 33 1004.4
20260507200030 64 303 3.5 9.6 0.00 0.18 0.01 31 1004.4
20260507195507 64 288 1.7 10.4 0.00 0.18 0.01 33 1004.5
20260507195007 64 334 4.3 10.4 0.00 0.19 0.01 32 1004.5
20260507194507 64 302 3.5 11.3 0.00 0.19 0.01 33 1004.5
20260507194007 63 301 3.5 11.3 0.00 0.19 0.01 34 1004.5
20260507193506 63 306 3.5 9.6 0.00 0.20 0.01 33 1004.6
20260507193012 63 288 0.9 9.6 0.00 0.20 0.01 32 1004.5
20260507192508 64 274 2.6 9.6 0.00 0.21 0.01 31 1004.5
20260507192008 65 248 2.6 9.6 0.00 0.22 0.01 31 1004.6
20260507191516 65 294 2.6 9.6 0.00 0.22 0.01 32 1004.6
20260507191007 64 313 3.5 12.2 0.00 0.23 0.01 32 1004.6
20260507190508 64 327 3.5 12.2 0.00 0.23 0.01 32 1004.6
20260507190033 64 309 5.2 10.4 0.00 0.23 0.01 32 1004.6
20260507185508 64 338 2.6 8.7 0.00 0.23 0.01 34 1004.7
20260507185007 64 310 4.3 8.7 0.00 0.23 0.01 34 1004.7
20260507184526 64 204 1.7 8.7 0.00 0.23 0.01 36 1004.7
20260507184007 63 322 3.5 8.7 0.00 0.23 0.01 36 1004.7
20260507183506 63 279 2.6 7.0 0.00 0.23 0.01 38 1004.8
20260507183016 63 263 3.5 11.3 0.00 0.23 0.01 39 1004.9
20260507182507 62 232 4.3 13.9 0.00 0.23 0.01 40 1005.0
20260507182011 62 234 6.1 11.3 0.00 0.23 0.01 39 1004.8
20260507181517 64 330 4.3 10.4 0.00 0.23 0.01 38 1004.9
20260507181007 64 229 2.6 7.8 0.00 0.23 0.01 40 1005.0
20260507180508 63 321 3.5 9.6 0.00 0.23 0.01 40 1004.9
20260507180020 63 334 3.5 12.2 0.00 0.23 0.01 39 1005.1
20260507175507 63 271 4.3 12.2 0.00 0.23 0.01 40 1005.1
20260507175008 63 260 3.5 11.3 0.00 0.23 0.01 41 1005.1
20260507174528 64 203 3.5 10.4 0.00 0.23 0.01 39 1005.2
20260507174009 63 342 3.5 13.9 0.00 0.23 0.01 42 1005.1
20260507173510 63 300 3.5 13.9 0.00 0.23 0.01 43 1005.1
20260507173013 63 321 4.3 12.2 0.00 0.23 0.01 40 1005.3
20260507172506 63 243 5.2 12.2 0.00 0.23 0.01 38 1005.2
20260507172003 63 317 3.5 11.3 0.00 0.23 0.01 42 1005.2
20260507171513 63 245 3.5 11.3 0.00 0.23 0.01 42 1005.3
20260507171007 63 328 3.5 9.6 0.00 0.23 0.01 41 1005.3
20260507170508 63 330 3.5 9.6 0.00 0.23 0.01 42 1005.3
20260507170020 63 247 2.6 11.3 0.00 0.23 0.01 46 1005.4
20260507165508 63 313 5.2 11.3 0.00 0.23 0.01 42 1005.4
20260507165008 63 305 4.3 9.6 0.00 0.23 0.01 45 1005.4
20260507164523 62 263 2.6 9.6 0.00 0.23 0.01 47 1005.4
20260507164014 61 309 4.3 10.4 0.00 0.23 0.01 48 1005.4
20260507163509 61 287 3.5 10.4 0.00 0.23 0.01 48 1005.6
20260507163003 61 311 3.5 12.2 0.00 0.23 0.01 48 1005.5
20260507162506 62 326 4.3 10.4 0.00 0.23 0.01 45 1005.5
20260507162006 63 273 4.3 10.4 0.00 0.23 0.01 45 1005.5
20260507161511 62 214 2.6 10.4 0.00 0.23 0.01 47 1005.6
20260507161003 61 294 4.3 10.4 0.00 0.23 0.01 45 1005.7
20260507160506 61 323 3.5 10.4 0.00 0.23 0.01 48 1005.8
20260507160014 60 333 3.5 9.6 0.00 0.23 0.01 53 1005.9
20260507155506 57 291 0.9 8.7 0.00 0.23 0.01 67 1005.9
20260507155007 56 170 3.5 9.6 0.00 0.23 0.01 74 1005.9
20260507154522 54 165 6.1 12.2 0.00 0.23 0.01 74 1006.0
20260507154012 53 167 3.5 12.2 0.00 0.23 0.01 75 1006.1
20260507153508 53 145 6.1 10.4 0.00 0.23 0.01 75 1006.0
20260507153023 53 189 7.8 10.4 0.00 0.23 0.01 75 1006.3
20260507152508 53 193 6.1 10.4 0.00 0.23 0.01 76 1006.3
20260507152004 54 158 7.8 10.4 0.00 0.23 0.01 74 1006.2
20260507151508 55 173 7.0 10.4 0.00 0.23 0.01 76 1006.2
20260507151006 54 173 7.8 10.4 0.00 0.23 0.01 75 1006.3
20260507150506 54 155 7.0 10.4 0.00 0.23 0.01 76 1006.3
20260507150013 54 180 7.0 10.4 0.00 0.23 0.01 75 1006.3
20260507145507 55 173 7.0 10.4 0.00 0.23 0.01 76 1006.2
20260507145006 54 166 5.2 8.7 0.00 0.23 0.01 76 1006.2
20260507144520 55 149 5.2 8.7 0.00 0.23 0.01 75 1006.3
20260507144008 55 170 6.1 8.7 0.00 0.23 0.01 74 1006.3
20260507143511 56 202 5.2 8.7 0.00 0.23 0.01 72 1006.4
20260507143023 57 180 6.1 8.7 0.00 0.23 0.01 70 1006.3
20260507142509 59 166 4.3 7.8 0.00 0.23 0.01 58 1006.4
20260507142009 59 51 1.7 3.5 0.00 0.23 0.01 58 1006.3
20260507141526 59 23 1.7 3.5 0.00 0.23 0.01 59 1006.5
20260507141009 59 179 1.7 3.5 0.00 0.23 0.01 59 1006.5
20260507140505 59 314 0.0 7.0 0.00 0.23 0.01 63 1006.6
20260507140009 58 286 2.6 7.0 0.00 0.23 0.01 65 1006.6
20260507135506 57 205 0.9 6.1 0.00 0.23 0.01 65 1006.7
20260507135004 57 256 1.7 5.2 0.00 0.23 0.01 63 1006.7
20260507134520 57 303 1.7 7.0 0.00 0.23 0.01 65 1006.7
20260507134012 57 237 0.9 7.0 0.00 0.23 0.01 68 1006.7
20260507133507 57 294 0.9 4.3 0.00 0.23 0.01 70 1006.7
20260507133018 56 338 0.9 6.1 0.00 0.23 0.01 72 1006.9
20260507132506 56 249 2.6 6.1 0.00 0.23 0.01 72 1006.9
20260507132010 56 248 1.7 6.1 0.00 0.23 0.01 70 1007.0
20260507131524 56 260 1.7 5.2 0.00 0.23 0.01 70 1007.0
20260507131012 56 316 0.9 3.5 0.00 0.23 0.01 72 1007.0
20260507130510 56 328 1.7 5.2 0.00 0.23 0.01 72 1007.0
20260507130023 55 315 2.6 5.2 0.00 0.23 0.01 73 1007.1
20260507125508 55 236 1.7 3.5 0.00 0.23 0.01 76 1007.1
20260507125007 55 308 0.9 3.5 0.00 0.23 0.01 76 1007.0
20260507124511 54 334 1.7 3.5 0.00 0.23 0.01 78 1007.1
20260507124007 54 324 1.7 5.2 0.00 0.23 0.01 79 1007.1
20260507123507 54 224 1.7 5.2 0.00 0.23 0.01 79 1007.1
20260507123016 54 320 0.9 3.5 0.00 0.23 0.01 81 1007.1
20260507122507 53 355 0.0 4.3 0.00 0.23 0.01 84 1007.2
20260507122008 53 330 0.9 4.3 0.00 0.23 0.01 84 1007.0
20260507121520 52 336 1.7 4.3 0.00 0.23 0.01 84 1007.0
20260507121008 52 321 1.7 4.3 0.00 0.23 0.01 85 1007.0
20260507120507 52 264 0.9 3.5 0.00 0.23 0.01 86 1007.0
20260507120025 51 312 0.9 2.6 0.00 0.23 0.01 87 1007.0
20260507115510 51 287 0.9 2.6 0.00 0.23 0.01 87 1007.0
20260507115010 50 326 0.0 2.6 0.00 0.23 0.01 88 1007.0
20260507114525 49 282 0.0 2.6 0.00 0.23 0.01 88 1007.1
20260507114006 49 316 0.0 1.7 0.00 0.23 0.01 88 1006.9
20260507113505 49 315 0.9 3.5 0.00 0.23 0.01 88 1006.8
20260507113029 48 329 0.0 3.5 0.00 0.23 0.01 88 1006.8
20260507112509 48 326 1.7 3.5 0.00 0.23 0.01 88 1006.9
20260507112010 48 315 0.0 2.6 0.00 0.23 0.01 88 1006.9
20260507111524 48 320 0.9 2.6 0.00 0.23 0.01 88 1006.9
20260507111007 48 318 0.0 1.7 0.00 0.23 0.01 89 1007.2
20260507110512 48 314 0.0 0.0 0.00 0.23 0.01 89 1007.0
20260507110028 47 314 0.0 0.0 0.00 0.23 0.01 89 1007.1
20260507105508 47 314 0.0 0.0 0.00 0.23 0.01 89 1007.2
20260507105008 47 314 0.0 0.0 0.00 0.23 0.01 89 1007.3
20260507104524 47 314 0.0 0.0 0.00 0.23 0.01 89 1006.9
20260507104015 47 309 0.0 0.0 0.00 0.23 0.01 89 1006.9
20260507103508 47 309 0.0 0.0 0.00 0.23 0.01 89 1007.1
20260507103025 47 309 0.0 0.0 0.00 0.23 0.01 89 1007.7
20260507102510 47 309 0.0 0.0 0.00 0.23 0.01 89 1007.4
20260507102007 47 309 0.0 0.0 0.00 0.23 0.01 89 1007.2
20260507101526 47 309 0.0 1.7 0.00 0.23 0.01 89 1007.2
20260507101007 47 309 0.0 1.7 0.00 0.23 0.01 89 1007.2
20260507100507 47 309 0.0 1.7 0.00 0.23 0.01 89 1007.0
20260507100031 47 288 0.0 1.7 0.00 0.23 0.01 89 1007.0
20260507095509 47 301 0.0 1.7 0.00 0.23 0.01 89 1007.1
20260507095008 47 296 0.0 1.7 0.00 0.23 0.01 89 1007.0
20260507094526 47 269 0.0 2.6 0.00 0.23 0.01 89 1007.2
20260507094006 48 275 0.0 2.6 0.00 0.23 0.01 89 1007.0
20260507093510 48 310 0.9 2.6 0.00 0.23 0.01 89 1006.1
20260507093036 48 320 0.9 2.6 0.00 0.23 0.01 90 1006.5
20260507092512 48 332 0.0 1.7 0.00 0.23 0.01 90 1006.8
20260507092011 48 305 0.0 3.5 0.00 0.23 0.01 90 1006.6
20260507091526 48 303 0.0 4.3 0.00 0.23 0.01 90 1006.5
20260507091008 48 317 0.9 4.3 0.00 0.23 0.01 90 1006.2
20260507090506 48 315 0.9 4.3 0.00 0.23 0.01 90 1006.2
20260507090031 48 313 1.7 5.2 0.00 0.23 0.01 90 1006.4
20260507085507 49 328 1.7 5.2 0.00 0.23 0.01 90 1006.2
20260507085009 49 318 0.9 4.3 0.00 0.23 0.01 90 1006.2
20260507084522 50 311 0.0 4.3 0.00 0.23 0.01 90 1006.2
20260507084013 50 9 0.0 1.7 0.00 0.23 0.01 91 1006.2
20260507083510 50 294 0.0 1.7 0.00 0.23 0.01 92 1006.4
20260507083010 50 314 0.0 1.7 0.00 0.23 0.01 92 1006.7
20260507082503 50 307 0.0 1.7 0.00 0.23 0.01 92 1006.6
20260507082007 50 315 0.0 0.0 0.00 0.23 0.01 92 1006.5
20260507081512 50 330 0.0 0.0 0.00 0.23 0.01 91 1006.2
20260507081005 50 330 0.0 0.0 0.00 0.23 0.01 91 1006.1
20260507080507 50 330 0.0 0.0 0.00 0.23 0.01 91 1006.1
20260507080016 50 330 0.0 0.0 0.00 0.23 0.01 91 1006.1
20260507075506 50 330 0.0 0.0 0.00 0.23 0.01 91 1005.9
20260507075011 50 328 0.0 1.7 0.00 0.23 0.01 92 1005.8
20260507074527 50 355 0.0 1.7 0.00 0.23 0.01 92 1005.9
20260507074003 50 251 0.0 0.0 0.00 0.23 0.01 91 1006.1
20260507073503 50 251 0.0 0.0 0.00 0.23 0.01 91 1006.3
20260507073006 50 251 0.0 0.0 0.00 0.23 0.01 91 1006.1
20260507072504 51 340 0.0 0.0 0.00 0.23 0.01 91 1006.1
20260507072006 51 340 0.0 0.0 0.00 0.23 0.01 91 1006.0
20260507071510 51 340 0.0 0.0 0.00 0.23 0.01 92 1005.8
20260507071008 51 340 0.0 0.0 0.00 0.23 0.01 92 1005.6
20260507070508 51 338 0.0 0.0 0.00 0.23 0.01 92 1005.6
20260507070016 51 338 0.0 0.0 0.00 0.23 0.01 91 1005.7
20260507065512 51 338 0.0 1.7 0.00 0.23 0.01 91 1005.6
20260507065008 51 9 0.0 1.7 0.00 0.23 0.01 91 1005.5
20260507064520 51 355 0.0 1.7 0.00 0.23 0.01 91 1005.5
20260507064007 51 14 0.0 1.7 0.00 0.23 0.01 92 1005.8
20260507063508 51 15 0.0 1.7 0.00 0.23 0.01 91 1005.7
20260507063024 52 340 0.0 1.7 0.00 0.23 0.01 92 1005.7
20260507062504 52 350 0.0 1.7 0.00 0.23 0.01 92 1005.7
20260507062002 52 342 0.0 1.7 0.00 0.23 0.01 92 1005.5
20260507061506 52 312 0.0 3.5 0.00 0.23 0.01 92 1005.3
20260507061005 52 308 0.9 3.5 0.00 0.23 0.01 92 1005.5
20260507060504 52 314 0.0 1.7 0.00 0.23 0.01 92 1005.4
20260507060012 52 330 0.0 1.7 0.00 0.23 0.01 92 1005.5
20260507055504 52 313 0.0 2.6 0.00 0.23 0.01 92 1005.5
20260507055008 53 330 1.7 4.3 0.00 0.23 0.01 92 1005.5
20260507054518 53 319 1.7 4.3 0.00 0.23 0.01 92 1005.3
20260507054010 53 317 1.7 4.3 0.00 0.23 0.01 92 1005.2
20260507053509 53 298 0.9 3.5 0.00 0.23 0.01 92 1005.0
20260507053020 53 270 0.9 3.5 0.00 0.23 0.01 92 1005.2
20260507052510 53 309 0.9 2.6 0.00 0.23 0.01 92 1005.2
20260507052009 53 269 0.0 3.5 0.00 0.23 0.01 92 1005.0
20260507051524 53 322 0.9 3.5 0.01 0.23 0.01 92 1004.9
20260507051010 53 320 0.9 5.2 0.01 0.23 0.01 92 1004.9
20260507050504 53 324 1.7 5.2 0.01 0.23 0.01 92 1004.8
20260507050011 53 318 0.9 4.3 0.01 0.23 0.01 92 1005.2
20260507045506 54 249 0.9 6.1 0.01 0.23 0.01 92 1005.2
20260507045004 54 320 0.9 6.1 0.01 0.23 0.01 93 1005.3
20260507044515 54 230 0.9 3.5 0.01 0.23 0.01 93 1005.0
20260507044008 54 312 0.9 3.5 0.01 0.23 0.01 93 1004.5
20260507043507 54 279 1.7 4.3 0.01 0.23 0.01 93 1004.5
20260507043027 54 317 1.7 6.1 0.01 0.23 0.01 93 1004.4
20260507042510 54 288 1.7 7.8 0.02 0.23 0.01 93 1004.3
20260507042009 54 257 1.7 7.8 0.02 0.23 0.01 93 1004.4
20260507041524 54 286 1.7 7.0 0.01 0.22 0.00 93 1004.3
20260507041009 55 255 2.6 6.1 0.01 0.22 0.00 93 1004.3
20260507040510 55 314 1.7 7.0 0.01 0.22 0.00 93 1004.2
20260507040025 55 319 2.6 7.0 0.01 0.22 0.00 94 1004.6
20260507035504 54 303 0.9 2.6 0.01 0.22 0.22 94 1004.7
20260507035003 54 203 0.9 2.6 0.01 0.22 0.22 93 1004.7
20260507034518 55 205 0.0 1.7 0.01 0.22 0.22 95 1004.6
20260507034005 54 215 0.0 1.7 0.01 0.22 0.22 95 1004.7
20260507033510 54 252 0.9 2.6 0.01 0.22 0.22 95 1004.6
20260507033017 53 257 0.9 2.6 0.01 0.22 0.22 95 1004.4
20260507032511 51 306 0.0 1.7 0.00 0.21 0.21 95 1004.4
20260507032013 50 285 0.0 1.7 0.00 0.21 0.21 94 1004.3
20260507031521 49 200 0.0 0.0 0.00 0.21 0.21 92 1004.1
20260507031011 49 200 0.0 0.0 0.00 0.21 0.21 92 1004.0
20260507030512 49 211 0.0 0.0 0.00 0.21 0.21 92 1004.0
20260507030024 50 198 0.0 1.7 0.00 0.21 0.21 92 1004.0
20260507025507 51 182 0.0 1.7 0.00 0.21 0.21 91 1004.1
20260507025009 51 202 0.0 3.5 0.00 0.21 0.21 92 1004.1
20260507024528 52 202 0.9 3.5 0.00 0.21 0.21 92 1004.2
20260507024008 53 228 1.7 3.5 0.00 0.21 0.21 93 1004.3
20260507023504 53 183 1.7 3.5 0.00 0.21 0.21 93 1004.3
20260507023014 52 211 1.7 4.3 0.00 0.21 0.21 93 1004.3
20260507022506 53 215 1.7 7.8 0.00 0.21 0.21 93 1004.4
20260507022009 53 210 2.6 7.8 0.01 0.21 0.21 93 1004.4
20260507021519 53 224 3.5 7.0 0.01 0.21 0.21 94 1004.4
20260507021015 52 238 1.7 8.7 0.01 0.21 0.21 94 1004.6
20260507020510 51 205 3.5 8.7 0.01 0.21 0.21 94 1004.7